Temperature
9 9 9 10 10 10 10 10 10 10 10 10 10 10 10 10 10 10 10 10 10 10 10 10 10 10 10 10 10 10 10 10 10 10 10 10 10 10 10 11 11 11 11
9 9 9 9 9 9 9 10 10 10 10 10 9 9 10 10 10 10 10 10 10 10 10 10 10 10 10 10 10 10 10 10 10 10 10 10 10 10 10 10 10 10 10
8 8 8 9 9 9 9 9 9 9 9 9 9 9 9 9 9 9 9 9 9 9 9 9 9 9 9 9 9 9 9 9 10 10 10 10 10 10 10 10 10 10 10
8 8 8 8 8 8 8 9 9 9 9 9 9 9 9 9 9 9 9 9 9 9 9 9 9 9 9 9 9 9 9 9 9 9 9 9 9 9 9 9 9 10 10
7 7 7 7 7 8 8 8 8 8 8 8 8 8 8 8 8 8 8 8 8 8 8 8 8 9 9 9 9 8 9 9 9 9 9 9 9 9 9 9 9 9 9
6 7 7 7 7 7 7 7 7 7 7 7 8 7 7 7 7 7 7 7 7 8 8 8 8 8 8 8 8 8 8 8 8 8 9 9 9 9 9 9 9 9 9
6 6 6 6 6 6 6 6 7 7 7 7 7 7 7 7 7 7 7 7 7 7 7 7 7 8 8 8 8 8 8 8 8 8 8 8 8 8 8 8 8 8 9
5 5 5 6 6 6 6 6 6 6 6 6 6 6 5 6 6 6 6 6 6 7 7 7 7 7 7 7 7 7 7 7 7 7 7 8 8 8 8 8 8 8 8
5 5 5 5 5 5 5 5 5 5 5 5 5 5 5 5 5 6 6 6 6 6 6 6 6 6 7 7 7 7 7 7 7 7 7 7 7 7 7 7 7 8 8
4 4 4 4 4 4 5 5 5 5 5 5 5 5 4 4 4 4 5 5 5 6 6 6 6 6 6 6 6 6 6 6 6 6 6 6 6 6 7 7 7 7 7
4 3 4 4 4 4 4 4 4 4 4 4 4 4 4 4 4 3 4 4 5 5 5 5 5 5 5 6 6 6 6 6 6 6 6 6 6 6 6 6 6 6 7
3 3 3 3 3 3 3 3 4 4 4 4 4 4 3 3 3 3 3 3 4 5 5 5 5 5 5 5 5 5 5 5 5 5 5 5 5 5 5 5 5 6 6
3 3 3 3 3 3 3 3 3 3 3 3 3 3 3 3 3 2 2 2 2 3 4 4 4 4 4 4 4 4 4 5 5 5 5 5 5 5 5 5 5 5 5
2 2 2 2 2 2 2 2 2 2 3 3 2 2 2 2 2 2 2 2 1 2 2 3 4 4 3 3 3 3 4 4 4 4 4 4 4 4 4 4 4 4 4
1 1 1 2 2 2 2 2 2 2 2 2 2 2 2 2 2 1 1 1 1 0 1 2 3 3 3 3 3 3 3 3 3 3 3 3 3 3 3 4 3 4 4
1 1 1 1 1 1 1 1 1 1 1 1 1 1 1 1 1 1 1 1 0 0 -0 1 1 2 2 2 2 2 2 3 3 3 3 3 3 3 3 3 3 3 3
0 0 0 1 1 1 1 1 1 1 1 1 1 1 1 1 1 1 0 0 0 -0 -1 0 1 1 1 1 1 1 2 2 2 2 2 2 2 2 2 2 2 2 2
-0 -0 -0 -0 0 0 0 0 0 -0 -0 0 0 0 0 0 0 0 0 -0 -0 -1 -1 -1 -0 -0 0 0 1 1 1 1 1 2 2 2 2 2 2 2 2 2 2
-1 -1 -1 -1 -1 -1 -1 -1 -1 -1 -1 -1 -1 -1 -1 -0 -0 -0 -0 -1 -1 -1 -1 -1 -1 -1 -1 -1 -0 -0 0 0 1 1 1 1 1 1 1 1 1 1 1
-2 -2 -1 -2 -1 -1 -1 -1 -1 -1 -1 -2 -2 -1 -1 -1 -1 -1 -1 -1 -1 -2 -2 -2 -2 -2 -2 -1 -1 -1 -1 -0 0 0 0 0 0 1 1 1 1 1 1
-3 -2 -2 -2 -2 -2 -2 -2 -2 -2 -2 -2 -2 -2 -2 -2 -2 -2 -2 -2 -2 -2 -2 -3 -3 -3 -2 -2 -2 -2 -2 -2 -1 -1 -1 -0 -0 -0 0 0 0 0 0
-3 -3 -3 -3 -3 -3 -3 -3 -3 -3 -3 -3 -3 -3 -3 -3 -3 -3 -3 -3 -3 -3 -3 -3 -3 -3 -3 -3 -3 -3 -3 -3 -3 -2 -2 -1 -1 -1 -1 -1 -0 -0 -0
-4 -4 -4 -4 -4 -4 -4 -4 -4 -4 -4 -4 -4 -4 -4 -4 -4 -4 -3 -3 -3 -4 -4 -4 -4 -4 -4 -4 -4 -4 -3 -3 -3 -3 -3 -2 -2 -2 -1 -1 -1 -1 -1
-5 -5 -5 -4 -5 -4 -4 -5 -5 -5 -5 -5 -5 -5 -5 -5 -4 -5 -4 -4 -4 -4 -4 -4 -4 -4 -4 -4 -4 -4 -4 -4 -4 -4 -4 -4 -3 -3 -2 -2 -2 -2 -2
-5 -5 -5 -5 -5 -5 -5 -6 -6 -6 -6 -6 -6 -6 -6 -6 -5 -6 -6 -5 -5 -5 -5 -5 -5 -5 -5 -5 -5 -5 -5 -5 -5 -4 -4 -4 -4 -4 -3 -3 -2 -2 -3
-6 -6 -6 -6 -6 -6 -6 -6 -7 -7 -7 -7 -6 -6 -6 -6 -6 -6 -6 -6 -6 -5 -5 -5 -5 -5 -5 -5 -5 -5 -5 -5 -6 -5 -5 -5 -5 -5 -5 -4 -3 -3 -3
Wind_Speed
3 3 3 3 4 4 5 5 5 5 5 5 4 4 4 3 4 4 3 4 3 3 3 3 4 5 5 5 5 5 6 6 6 6 5 5 4 3 3 3 4 4 4
3 3 2 2 3 3 4 4 4 4 4 4 4 3 3 2 3 2 2 2 2 2 2 2 2 3 4 4 4 4 4 4 4 4 4 4 4 3 2 2 2 2 2
3 3 2 1 1 2 3 4 4 4 3 3 3 3 2 2 2 1 1 1 1 1 1 1 1 1 2 3 3 3 3 3 3 2 2 2 2 2 2 2 1 0 0
3 2 2 1 1 2 3 3 2 2 2 2 2 2 2 2 1 1 2 2 2 1 0 0 0 1 0 1 2 2 2 2 2 2 2 1 1 0 1 1 1 1 1
2 2 1 1 2 2 2 2 2 1 1 2 1 1 2 1 1 1 1 2 2 1 1 0 0 1 1 2 2 3 3 3 3 2 2 2 1 1 1 2 2 2 2
2 2 2 1 2 2 1 1 1 2 1 1 1 1 2 1 0 0 0 1 2 1 1 1 0 1 2 2 3 4 4 4 4 3 3 3 3 3 3 3 3 3 3
2 2 1 1 1 1 1 1 1 1 1 1 1 2 2 2 0 0 0 1 1 0 0 0 1 1 2 3 3 5 5 5 5 5 5 4 5 5 4 4 4 4 5
2 2 2 1 1 1 1 1 1 1 0 1 1 1 1 2 2 2 1 1 1 1 1 2 2 2 3 3 4 5 5 6 6 6 6 6 6 6 6 6 6 5 5
3 2 2 1 1 1 2 2 2 2 1 1 0 2 2 2 2 2 2 1 1 1 2 3 3 4 4 4 5 6 6 7 7 7 7 7 7 8 8 8 8 8 8
2 3 2 2 2 1 2 3 2 2 2 2 1 1 1 2 2 2 3 2 2 2 3 3 4 5 6 5 6 6 6 7 8 9 8 8 9 9 10 10 10 9 10
2 3 3 2 2 2 2 2 2 2 2 3 2 1 1 1 1 2 3 4 3 3 3 4 4 5 6 6 5 6 7 8 9 10 10 10 10 10 10 11 11 11 11
2 3 3 3 3 3 3 3 2 3 3 3 3 2 2 2 2 2 3 4 4 4 4 4 4 5 5 4 5 6 7 8 9 10 12 12 11 11 11 11 12 12 12
3 4 3 3 3 3 3 3 3 3 4 3 4 3 3 3 2 2 3 3 4 4 3 3 4 4 5 4 6 7 7 8 10 12 12 13 12 12 12 12 12 12 12
4 4 4 4 4 4 4 3 3 4 4 4 5 5 4 3 3 3 3 2 3 3 3 4 3 4 4 4 6 7 7 10 11 12 13 13 13 12 12 12 12 13 13
3 4 4 4 4 4 4 4 4 5 4 5 5 5 4 4 3 3 3 3 4 4 5 4 3 2 3 5 7 8 9 11 12 12 13 13 13 13 13 13 13 14 14
3 3 4 4 4 4 5 4 4 4 4 5 4 5 5 4 3 3 4 4 4 5 5 4 4 4 5 7 9 9 10 11 12 13 13 14 13 13 13 13 14 14 14
4 4 4 4 4 5 5 5 5 5 5 5 5 5 6 5 5 4 4 4 5 4 7 6 4 4 4 5 7 9 10 10 10 12 13 13 13 13 13 13 14 14 14
4 4 4 4 5 5 4 5 6 6 6 6 6 6 6 5 6 5 5 5 5 5 6 7 5 4 5 5 6 7 8 9 9 12 13 13 14 13 13 13 13 14 14
3 3 3 4 5 5 5 5 5 5 6 6 6 6 7 6 6 5 5 6 5 6 5 5 6 4 4 4 5 6 7 7 9 10 12 13 13 14 14 14 14 15 15
3 3 4 4 4 4 5 5 5 5 5 6 6 6 7 7 8 7 6 6 6 6 5 5 6 5 4 4 4 5 6 5 6 8 11 12 13 14 15 15 15 15 16
3 3 3 3 4 4 4 5 5 5 5 6 6 6 7 8 9 8 7 6 6 6 6 6 6 6 5 4 5 5 6 6 7 6 6 7 8 9 11 13 14 15 16
2 2 2 3 4 4 7 8 6 5 5 6 6 6 6 8 9 10 11 10 9 8 8 7 7 8 8 6 5 6 6 6 6 3 3 7 6 8 9 11 14 16 16
1 2 2 3 4 6 8 9 9 5 5 5 6 5 5 6 7 6 8 9 10 11 10 8 9 9 8 6 6 7 7 8 9 5 5 9 6 8 9 12 15 16 16
2 2 3 3 4 6 8 8 8 4 4 5 5 5 6 6 6 7 6 6 7 7 9 8 8 9 8 7 8 8 8 8 8 6 5 7 6 6 8 10 14 15 15
2 2 3 3 3 5 8 8 7 3 3 5 5 5 6 6 10 10 7 7 7 7 8 10 11 10 12 12 9 5 5 6 7 6 4 5 6 6 6 7 9 12 13
2 3 3 3 4 5 7 7 7 3 4 4 5 5 8 9 10 10 7 7 8 7 6 7 8 9 8 9 10 6 6 7 6 6 4 4 5 4 5 5 5 6 8
Wind_Direction
97 80 71 66 52 44 44 38 38 41 44 48 54 68 68 65 58 51 40 47 60 88 105 110 117 122 121 115 110 107 105 98 91 85 85 82 77 83 94 92 91 85 81
115 104 83 66 57 50 49 51 46 49 43 44 38 44 57 66 63 55 51 42 50 83 115 123 120 130 141 138 129 116 110 107 108 102 92 85 76 71 77 86 89 84 84
124 122 114 81 60 65 61 57 50 53 43 36 28 25 41 54 59 63 81 85 57 55 116 134 115 122 153 158 158 147 134 128 124 126 120 105 91 65 54 51 51 61 90
124 120 121 106 93 85 71 63 54 47 30 13 359 350 12 24 34 75 111 115 102 77 77 93 122 44 20 206 199 190 180 169 165 158 152 150 158 145 6 340 325 333 323
121 113 119 108 109 92 72 66 45 52 41 4 338 329 342 345 1 81 106 129 129 124 113 358 9 333 330 302 251 231 224 205 200 207 208 222 236 243 260 295 292 279 282
129 117 101 91 109 108 79 69 53 42 42 339 340 334 320 310 83 126 156 116 127 131 113 94 70 292 300 303 284 257 238 229 229 236 239 242 250 255 258 268 275 270 269
144 128 104 85 101 148 157 135 80 71 44 27 51 4 342 335 339 307 38 82 69 151 162 215 232 262 274 290 301 282 256 246 243 243 245 254 261 263 260 265 262 272 267
162 160 129 132 124 154 143 140 99 120 76 55 115 99 344 333 327 302 278 231 284 331 315 272 254 250 261 267 283 292 273 258 252 248 248 253 262 267 263 265 264 270 271
177 172 174 162 171 176 187 188 179 168 190 257 143 146 157 227 294 301 281 261 266 285 297 288 270 261 256 263 268 276 277 265 256 253 253 254 259 265 271 269 269 270 273
190 181 179 182 189 190 202 208 199 209 188 205 241 252 197 174 187 285 297 285 281 273 277 294 282 272 262 260 260 266 270 271 261 256 258 258 260 263 267 270 270 272 272
214 199 190 189 196 204 211 214 216 222 210 208 208 221 240 264 200 196 258 285 299 271 267 271 267 265 272 263 259 262 270 268 267 263 261 263 263 266 269 271 271 271 274
234 219 210 204 206 208 215 218 221 227 224 223 221 212 200 205 211 208 232 253 271 277 275 260 254 259 266 272 269 277 277 273 270 271 265 265 266 268 270 271 272 272 273
235 229 228 221 217 222 223 218 223 234 226 222 224 228 227 233 227 220 227 249 267 284 278 261 247 251 258 275 278 276 278 281 278 274 271 266 267 269 269 269 269 270 271
230 227 220 222 223 224 226 222 228 235 229 225 230 230 232 238 235 224 218 220 261 278 268 261 267 242 245 279 284 279 280 278 280 279 277 273 268 268 268 267 267 268 270
235 223 218 221 222 223 221 223 233 234 228 231 232 232 236 239 240 237 228 214 210 244 260 250 254 252 273 286 289 291 284 280 280 281 281 279 272 267 266 266 266 267 268
226 220 222 221 225 227 225 225 244 237 232 236 235 233 239 244 247 243 234 230 225 229 249 247 254 273 285 289 289 292 289 283 280 278 280 280 277 268 266 266 267 268 268
221 221 225 224 229 232 229 229 237 239 239 243 242 237 239 237 239 243 239 234 234 233 250 265 267 274 270 278 291 289 285 281 276 275 277 279 278 271 267 268 269 269 270
228 226 227 230 234 239 235 232 235 236 237 241 244 244 245 242 238 237 236 236 237 238 241 260 272 271 266 266 272 281 288 284 279 276 275 277 278 275 267 268 270 273 273
231 230 227 235 239 239 235 234 237 240 241 242 242 242 247 244 245 241 239 239 239 247 243 251 267 267 269 270 276 281 280 281 282 276 274 274 274 276 270 268 269 270 270
230 232 234 238 244 247 244 242 241 243 246 248 247 246 247 243 244 242 244 244 240 244 249 253 263 267 265 262 253 267 279 274 279 278 276 275 274 275 273 266 266 268 269
242 238 238 248 252 249 246 247 244 242 245 250 251 251 252 254 254 251 249 245 239 241 246 251 261 267 265 261 255 258 270 282 280 266 265 267 270 269 271 269 267 265 266
252 256 258 257 259 256 261 260 254 244 247 249 253 254 255 258 262 264 261 257 250 242 239 244 254 259 261 259 262 268 272 281 280 252 258 269 266 263 265 265 266 266 266
271 273 269 268 270 265 263 262 261 253 245 248 252 256 262 263 266 260 266 269 267 264 256 248 251 255 257 255 255 263 263 268 270 269 281 275 263 264 266 267 269 265 266
263 262 268 268 276 277 272 268 268 262 254 253 250 250 256 264 262 261 258 262 263 265 264 254 251 255 257 255 247 254 261 271 277 270 260 266 265 268 276 268 270 266 267
285 278 277 272 273 281 278 274 274 262 259 263 260 254 254 257 264 266 259 261 266 269 275 268 266 270 274 273 268 260 260 264 276 274 252 255 269 279 278 271 264 266 268
285 289 291 285 276 278 279 280 276 267 263 268 267 261 259 261 266 264 256 256 260 264 271 277 278 279 277 276 275 255 247 251 264 271 250 245 263 281 285 270 263 269 274
Height
1529 1530 1530 1531 1531 1532 1533 1533 1534 1534 1535 1536 1536 1537 1538 1539 1539 1540 1540 1541 1541 1542 1543 1543 1544 1544 1544 1545 1545 1545 1545 1546 1546 1546 1547 1547 1547 1548 1548 1548 1548 1548 1548
1527 1528 1528 1529 1529 1530 1531 1531 1532 1532 1533 1534 1535 1535 1536 1537 1537 1538 1539 1539 1540 1540 1541 1542 1542 1542 1543 1543 1544 1544 1544 1544 1545 1545 1546 1546 1546 1546 1547 1547 1547 1548 1548
1525 1526 1526 1527 1527 1528 1529 1529 1530 1530 1531 1532 1532 1533 1534 1534 1535 1536 1536 1537 1538 1538 1539 1540 1540 1541 1541 1541 1542 1542 1542 1543 1543 1544 1544 1544 1545 1545 1545 1545 1546 1546 1546
1523 1523 1524 1524 1525 1526 1526 1527 1527 1528 1529 1529 1530 1531 1531 1532 1533 1534 1534 1535 1535 1536 1537 1538 1538 1539 1539 1540 1540 1540 1541 1541 1541 1542 1542 1542 1543 1543 1543 1544 1544 1544 1545
1521 1521 1522 1522 1522 1523 1524 1524 1525 1525 1526 1527 1527 1528 1529 1530 1530 1531 1532 1533 1533 1534 1534 1535 1536 1536 1537 1537 1538 1538 1538 1539 1539 1539 1540 1540 1540 1541 1541 1541 1542 1542 1543
1518 1519 1519 1519 1520 1520 1521 1522 1522 1523 1524 1524 1525 1526 1526 1527 1528 1528 1529 1530 1531 1531 1532 1532 1533 1534 1534 1535 1535 1535 1536 1536 1536 1537 1537 1538 1538 1538 1539 1539 1539 1540 1540
1515 1516 1516 1517 1517 1517 1518 1519 1520 1520 1521 1522 1522 1522 1523 1524 1525 1526 1526 1527 1528 1528 1529 1529 1530 1531 1531 1532 1532 1532 1533 1533 1534 1534 1534 1535 1535 1536 1536 1536 1537 1537 1537
1512 1513 1513 1514 1514 1514 1515 1516 1517 1517 1518 1519 1520 1520 1520 1522 1521 1522 1523 1524 1525 1525 1526 1526 1527 1527 1528 1528 1528 1529 1529 1530 1530 1531 1531 1532 1532 1532 1533 1533 1534 1534 1534
1508 1509 1510 1511 1511 1512 1512 1513 1513 1514 1515 1516 1517 1518 1519 1518 1518 1519 1519 1520 1521 1522 1522 1523 1523 1524 1524 1524 1525 1525 1526 1526 1527 1527 1528 1528 1528 1529 1529 1529 1530 1530 1531
1505 1506 1506 1507 1508 1508 1509 1509 1510 1511 1512 1512 1514 1515 1516 1516 1517 1515 1516 1516 1517 1517 1518 1518 1519 1519 1520 1520 1521 1521 1522 1522 1523 1523 1524 1524 1524 1525 1525 1526 1526 1526 1527
1501 1502 1503 1503 1504 1505 1505 1506 1506 1507 1508 1509 1509 1510 1511 1512 1513 1513 1511 1512 1512 1513 1514 1514 1514 1515 1515 1516 1516 1517 1517 1518 1518 1519 1519 1519 1520 1520 1520 1521 1521 1522 1522
1497 1498 1499 1499 1500 1501 1502 1502 1503 1503 1504 1505 1505 1506 1507 1508 1508 1508 1508 1507 1507 1507 1509 1509 1510 1510 1511 1511 1511 1512 1512 1513 1513 1513 1514 1514 1515 1515 1515 1516 1516 1516 1517
1492 1493 1494 1495 1496 1497 1498 1498 1499 1499 1500 1500 1501 1502 1503 1503 1504 1505 1505 1504 1503 1502 1503 1504 1505 1505 1506 1506 1506 1507 1507 1507 1508 1508 1509 1509 1509 1510 1510 1510 1510 1511 1511
1487 1489 1490 1491 1492 1493 1494 1494 1494 1495 1495 1496 1496 1497 1498 1498 1499 1500 1501 1501 1499 1498 1497 1498 1499 1500 1501 1501 1501 1502 1502 1502 1502 1503 1503 1503 1503 1503 1504 1504 1504 1505 1505
1483 1484 1485 1487 1488 1488 1489 1490 1490 1490 1490 1491 1491 1492 1493 1493 1494 1495 1496 1497 1497 1494 1492 1492 1493 1494 1495 1495 1496 1496 1496 1496 1496 1496 1497 1497 1497 1497 1497 1498 1498 1498 1499
1478 1479 1480 1481 1483 1483 1484 1484 1484 1485 1485 1486 1486 1487 1487 1488 1488 1490 1491 1491 1491 1491 1488 1486 1487 1488 1489 1489 1490 1489 1489 1490 1490 1490 1490 1490 1490 1491 1491 1491 1492 1492 1492
1473 1474 1475 1476 1477 1478 1478 1479 1479 1479 1480 1480 1481 1481 1481 1482 1483 1484 1484 1485 1485 1485 1483 1481 1482 1482 1483 1483 1483 1483 1483 1483 1483 1483 1483 1484 1484 1484 1484 1484 1484 1484 1484
1468 1469 1470 1471 1471 1472 1472 1472 1473 1473 1474 1474 1474 1475 1475 1476 1477 1477 1478 1478 1478 1479 1478 1475 1475 1476 1476 1476 1476 1476 1476 1476 1476 1476 1476 1476 1476 1476 1477 1477 1477 1477 1477
1462 1463 1464 1465 1465 1465 1466 1466 1467 1467 1467 1468 1468 1468 1469 1470 1470 1471 1471 1471 1472 1472 1471 1470 1469 1469 1469 1470 1470 1470 1469 1469 1468 1469 1469 1469 1469 1469 1469 1469 1469 1470 1470
1457 1458 1458 1459 1459 1459 1460 1460 1461 1461 1461 1461 1462 1462 1462 1463 1464 1464 1464 1465 1465 1465 1465 1464 1463 1463 1463 1463 1463 1462 1461 1461 1461 1461 1461 1461 1461 1461 1461 1461 1461 1462 1462
1451 1452 1452 1453 1453 1453 1454 1454 1454 1454 1455 1455 1455 1455 1456 1456 1457 1458 1458 1459 1459 1459 1459 1458 1457 1456 1456 1456 1456 1455 1454 1453 1453 1453 1453 1453 1453 1453 1453 1453 1453 1453 1454
1446 1446 1447 1447 1448 1448 1448 1448 1449 1448 1448 1448 1448 1449 1449 1450 1450 1451 1452 1452 1453 1453 1452 1452 1451 1450 1449 1450 1450 1449 1448 1447 1445 1446 1446 1445 1446 1444 1444 1445 1445 1445 1445
1441 1441 1442 1442 1442 1442 1442 1443 1443 1443 1442 1442 1442 1442 1442 1443 1444 1444 1445 1445 1446 1446 1446 1446 1445 1443 1443 1444 1444 1442 1441 1440 1439 1439 1439 1436 1437 1436 1436 1436 1436 1437 1437
1437 1437 1437 1437 1437 1436 1436 1437 1437 1436 1436 1436 1436 1436 1436 1436 1437 1438 1438 1438 1438 1438 1439 1439 1438 1437 1438 1437 1437 1436 1435 1434 1432 1432 1433 1429 1428 1428 1428 1428 1428 1428 1429
1433 1433 1432 1432 1432 1432 1432 1431 1431 1430 1430 1430 1430 1430 1430 1430 1431 1432 1432 1431 1431 1431 1432 1432 1432 1431 1431 1431 1431 1430 1429 1428 1425 1424 1426 1424 1421 1420 1420 1419 1420 1420 1421
1430 1429 1428 1428 1428 1427 1427 1427 1426 1425 1424 1424 1424 1424 1425 1424 1425 1426 1426 1425 1424 1424 1425 1425 1425 1425 1424 1424 1424 1423 1423 1421 1419 1417 1417 1418 1415 1415 1412 1411 1412 1413 1413